K9MWM-1 Weather Reports


Display with metric or nautical units.
time (UTC)temp
F
wind
direction
speed
MPH
gust
MPH
rain 1hr
in
rain 24hr
in
rain mn
in
humidity
%
barometer
mb
20260906154343 76 149 0.0 0.0 0.00 0.00 0.00
20260906153832 76 157 0.0 0.0 0.00 0.00 0.00
20260906153317 75 155 0.0 0.0 0.00 0.00 0.00
20260906152805 73 153 0.0 0.0 0.00 0.00 0.00
20260906151739 67 315 0.0 0.0 0.00 0.00 0.00
20260906151225 66 100 0.0 0.0 0.00 0.00 0.00
20260906150201 62 128 0.0 0.0 0.00 0.00 0.00
20260906145135 60 337 0.0 0.0 0.00 0.00 0.00
20260906144622 58 123 0.0 0.0 0.00 0.00 0.00
20260906144109 58 185 0.0 0.0 0.00 0.00 0.00
20260906143557 57 337 0.0 0.0 0.00 0.00 0.00
20260906142018 55 337 0.0 0.0 0.00 0.00 0.00
20260906141505 55 169 0.0 0.0 0.00 0.00 0.00
20260906140952 54 157 0.0 0.0 0.00 0.00 0.00
20260906140439 55 157 0.0 0.0 0.00 0.00 0.00
20260906135927 55 113 0.0 0.0 0.00 0.00 0.00
20260906135414 55 165 0.0 0.0 0.00 0.00 0.00
20260906134901 54 337 0.0 0.0 0.00 0.00 0.00
20260906134348 54 337 0.0 0.0 0.00 0.00 0.00
20260906133835 54 150 0.0 0.0 0.00 0.00 0.00
20260906132809 54 155 0.0 0.0 0.00 0.00 0.00
20260906132257 54 135 0.0 0.0 0.00 0.00 0.00
20260906131744 54 243 0.0 0.0 0.00 0.00 0.00
20260906131232 53 92 0.0 0.0 0.00 0.00 0.00
20260906130717 54 337 0.0 0.0 0.00 0.00 0.00
20260906130205 54 337 0.0 0.0 0.00 0.00 0.00
20260906125653 54 0 0.0 0.0 0.00 0.00 0.00
20260906124628 55 120 0.0 0.0 0.00 0.00 0.00
20260906123049 54 56 0.0 0.0 0.00 0.00 0.00
20260906122534 54 337 0.0 0.0 0.00 0.00 0.00
20260906122022 53 337 0.0 0.0 0.00 0.00 0.00
20260906121509 53 337 0.0 0.0 0.00 0.00 0.00
20260906120956 54 337 0.0 0.0 0.00 0.00 0.00
20260906120444 54 112 0.0 0.0 0.00 0.00 0.00
20260906115930 54 126 0.0 0.0 0.00 0.00 0.00
20260906114905 54 337 0.0 0.0 0.00 0.00 0.00
20260906114353 53 354 0.0 0.0 0.00 0.00 0.00
20260906113840 54 337 0.0 0.0 0.00 0.00 0.00
20260906111236 54 142 0.0 0.0 0.00 0.00 0.00
20260906110722 54 109 0.0 0.0 0.00 0.00 0.00
20260906110209 54 337 0.0 0.0 0.00 0.00 0.00
20260906105657 54 3 0.0 0.0 0.00 0.00 0.00
20260906105144 54 0 0.0 0.0 0.00 0.00 0.00
20260906104632 54 337 0.0 0.0 0.00 0.00 0.00
20260906104118 53 337 0.0 0.0 0.00 0.00 0.00
20260906103606 53 337 0.0 0.0 0.00 0.00 0.00
20260906103053 53 115 0.0 0.0 0.00 0.00 0.00
20260906102027 53 337 0.0 0.0 0.00 0.00 0.00
20260906101514 53 26 0.0 0.0 0.00 0.00 0.00
20260906101003 53 337 0.0 0.0 0.00 0.00 0.00
20260906095935 53 337 0.0 0.0 0.00 0.00 0.00
20260906095424 53 337 0.0 0.0 0.00 0.00 0.00
20260906094910 53 337 0.0 0.0 0.00 0.00 0.00
20260906094357 53 337 0.0 0.0 0.00 0.00 0.00
20260906093844 53 337 0.0 0.0 0.00 0.00 0.00
20260906093332 54 337 0.0 0.0 0.00 0.00 0.00
20260906092818 53 225 0.0 0.0 0.00 0.00 0.00
20260906092307 53 337 0.0 0.0 0.00 0.00 0.00
20260906091752 53 91 0.0 0.0 0.00 0.00 0.00
20260906091240 53 337 0.0 0.0 0.00 0.00 0.00
20260906085701 54 0 0.0 0.0 0.00 0.00 0.00
20260906084636 54 102 0.0 0.0 0.00 0.00 0.00
20260906084123 55 337 0.0 0.0 0.00 0.00 0.00
20260906083611 55 337 0.0 0.0 0.00 0.00 0.00
20260906083058 55 337 0.0 0.0 0.00 0.00 0.00
20260906082031 56 67 0.0 0.0 0.00 0.00 0.00
20260906081519 57 0 0.0 0.0 0.00 0.00 0.00
20260906081006 57 202 0.0 0.0 0.00 0.00 0.00
20260906075941 57 337 0.0 0.0 0.00 0.00 0.00
20260906075428 57 337 0.0 0.0 0.00 0.00 0.00
20260906074916 57 337 0.0 0.0 0.00 0.00 0.00
20260906073849 58 165 0.0 0.0 0.00 0.00 0.00
20260906073337 58 337 0.0 0.0 0.00 0.00 0.00
20260906072823 58 0 0.0 0.0 0.00 0.00 0.00
20260906071757 58 337 0.0 0.0 0.00 0.00 0.00
20260906071245 58 90 0.0 0.0 0.00 0.00 0.00
20260906070220 58 337 0.0 0.0 0.00 0.00 0.00
20260906065154 59 337 0.0 0.0 0.00 0.00 0.00
20260906064640 58 337 0.0 0.0 0.00 0.00 0.00
20260906064127 58 337 0.0 0.0 0.00 0.00 0.00
20260906063615 59 0 0.0 0.0 0.00 0.00 0.00
20260906062037 60 22 0.0 0.0 0.00 0.00 0.00
20260906061011 60 191 0.0 0.0 0.00 0.00 0.00
20260906060458 60 337 0.0 0.0 0.00 0.00 0.00
20260906055945 60 337 0.0 0.0 0.00 0.00 0.00
20260906055432 60 337 0.0 0.0 0.00 0.00 0.00
20260906054920 60 236 0.0 0.0 0.00 0.00 0.00
20260906053854 61 337 0.0 0.0 0.00 0.00 0.00
20260906053341 61 337 0.0 0.0 0.00 0.00 0.00
20260906052829 62 337 0.0 0.0 0.00 0.00 0.00
20260906052315 62 337 0.0 0.0 0.00 0.00 0.00
20260906051802 63 127 0.0 0.0 0.00 0.00 0.00
20260906050737 63 348 0.0 0.0 0.00 0.00 0.00
20260906045711 63 337 0.0 0.0 0.00 0.00 0.00
20260906045158 63 337 0.0 0.0 0.00 0.00 0.00
20260906044645 64 337 0.0 0.0 0.00 0.00 0.00
20260906044132 64 113 0.0 0.0 0.00 0.00 0.00
20260906043620 64 337 0.0 0.0 0.00 0.00 0.00
20260906043108 64 202 0.0 0.0 0.00 0.00 0.00
20260906042555 65 30 0.0 0.0 0.00 0.00 0.00
20260906042042 65 337 0.0 0.0 0.00 0.00 0.00
20260906041017 66 337 0.0 0.0 0.00 0.00 0.00
20260906040503 66 16 0.0 0.0 0.00 0.00 0.00
20260906034926 67 152 0.0 0.0 0.00 0.00 0.00
20260906034412 67 135 0.0 0.0 0.00 0.00 0.00
20260906033859 67 225 0.0 0.0 0.00 0.00 0.00
20260906033346 67 281 0.0 0.0 0.00 0.00 0.00
20260906032833 67 337 0.0 0.0 0.00 0.00 0.00
20260906032320 67 337 0.0 0.0 0.00 0.00 0.00
20260906031807 67 108 0.0 0.0 0.00 0.00 0.00
20260906031255 68 298 0.0 0.0 0.00 0.00 0.00
20260906030742 68 180 0.0 0.0 0.00 0.00 0.00
20260906030230 69 353 0.0 0.0 0.00 0.00 0.00
20260906025716 69 67 0.0 0.0 0.00 0.00 0.00
20260906025204 70 230 0.0 0.0 0.00 0.00 0.00
20260906024650 70 216 0.0 0.0 0.00 0.00 0.00
20260906023625 70 180 0.0 0.0 0.00 0.00 0.00
20260906022046 71 180 0.0 0.0 0.00 0.00 0.00
20260906021021 71 337 0.0 0.0 0.00 0.00 0.00
20260906015441 74 225 0.0 0.0 0.00 0.00 0.00
20260906014928 75 292 0.0 0.0 0.00 0.00 0.00
20260906014415 76 90 0.0 0.0 0.00 0.00 0.00
20260906013903 77 90 0.0 0.0 0.00 0.00 0.00
20260906013350 79 151 0.0 0.0 0.00 0.00 0.00
20260906012837 81 337 0.0 0.0 0.00 0.00 0.00
20260906011811 85 304 0.0 0.0 0.00 0.00 0.00
20260906011259 86 295 0.0 0.0 0.00 0.00 0.00
20260906010233 88 293 0.0 0.0 0.00 0.00 0.00
20260906005720 88 310 0.0 0.0 0.00 0.00 0.00
20260906005207 89 305 0.0 0.0 0.00 0.00 0.00
20260906004654 89 297 0.0 0.0 0.00 0.00 0.00
20260906004141 90 293 0.0 0.0 0.00 0.00 0.00
20260906003629 91 295 0.0 0.0 0.00 0.00 0.00
20260906003116 91 299 0.0 0.0 0.00 0.00 0.00
20260906001025 93 292 0.0 0.0 0.00 0.00 0.00
20260905235446 93 292 0.0 0.0 0.00 0.00 0.00
20260905234934 93 292 0.0 0.0 0.00 0.00 0.00
20260905234420 93 292 0.0 0.0 0.00 0.00 0.00
20260905233907 92 299 0.0 0.0 0.00 0.00 0.00
20260905233355 91 295 0.0 0.0 0.00 0.00 0.00
20260905232843 90 292 0.0 0.0 0.00 0.00 0.00
20260905231817 89 295 0.0 0.0 0.00 0.00 0.00
20260905231303 89 294 0.0 0.0 0.00 0.00 0.00
20260905230751 89 294 0.0 0.0 0.00 0.00 0.00
20260905230238 88 295 0.0 0.0 0.00 0.00 0.00
20260905225212 91 292 0.0 0.0 0.00 0.00 0.00
20260905224659 91 295 0.0 0.0 0.00 0.00 0.00
20260905224146 92 303 0.0 0.0 0.00 0.00 0.00
20260905223633 92 293 0.0 0.0 0.00 0.00 0.00
20260905223121 91 292 0.0 0.0 0.00 0.00 0.00
20260905222608 90 297 0.0 0.0 0.00 0.00 0.00
20260905222055 91 299 0.0 0.0 0.00 0.00 0.00
20260905221542 91 292 0.0 0.0 0.00 0.00 0.00
20260905220517 90 292 0.0 0.0 0.00 0.00 0.00
20260905220004 90 294 0.0 0.0 0.00 0.00 0.00
20260905214938 91 303 0.0 0.0 0.00 0.00 0.00
20260905214425 93 292 0.0 0.0 0.00 0.00 0.00
20260905213913 94 295 0.0 0.0 0.00 0.00 0.00
20260905213359 93 300 0.0 0.0 0.00 0.00 0.00
20260905212846 93 296 0.0 0.0 0.00 0.00 0.00
20260905212334 94 298 0.0 0.0 0.00 0.00 0.00
20260905211823 94 292 0.0 0.0 0.00 0.00 0.00
20260905211308 94 292 0.0 0.0 0.00 0.00 0.00
20260905210242 93 297 0.0 0.0 0.00 0.00 0.00
20260905205730 93 318 0.0 0.0 0.00 0.00 0.00
20260905204151 91 299 0.0 0.0 0.00 0.00 0.00
20260905203638 92 300 0.0 0.0 0.00 0.00 0.00
20260905203125 92 295 0.0 0.0 0.00 0.00 0.00
20260905202612 92 294 0.0 0.0 0.00 0.00 0.00
20260905202100 91 295 0.0 0.0 0.00 0.00 0.00
20260905201549 91 293 0.0 0.0 0.00 0.00 0.00
20260905201034 92 296 0.0 0.0 0.00 0.00 0.00
20260905200009 91 292 0.0 0.0 0.00 0.00 0.00
20260905195456 90 294 0.0 0.0 0.00 0.00 0.00
20260905194944 90 292 0.0 0.0 0.00 0.00 0.00
20260905194429 89 288 0.0 0.0 0.00 0.00 0.00
20260905193404 90 302 0.0 0.0 0.00 0.00 0.00
20260905192851 92 296 0.0 0.0 0.00 0.00 0.00
20260905192338 92 181 0.0 0.0 0.00 0.00 0.00
20260905191826 92 167 0.0 0.0 0.00 0.00 0.00
20260905191316 92 162 0.0 0.0 0.00 0.00 0.00
20260905190801 91 127 0.0 0.0 0.00 0.00 0.00
20260905190247 92 135 0.0 0.0 0.00 0.00 0.00
20260905185221 92 298 0.0 0.0 0.00 0.00 0.00
20260905184709 93 292 0.0 0.0 0.00 0.00 0.00
20260905184155 92 315 0.0 0.0 0.00 0.00 0.00
20260905183643 91 296 0.0 0.0 0.00 0.00 0.00
20260905183130 91 309 0.0 0.0 0.00 0.00 0.00
20260905182617 90 277 0.0 0.0 0.00 0.00 0.00
20260905182105 89 298 0.0 0.0 0.00 0.00 0.00
20260905181551 88 159 0.0 0.0 0.00 0.00 0.00
20260905181039 86 286 0.0 0.0 0.00 0.00 0.00
20260905180013 88 285 0.0 0.0 0.00 0.00 0.00
20260905175500 89 290 0.0 0.0 0.00 0.00 0.00
20260905174948 89 294 0.0 0.0 0.00 0.00 0.00
20260905174435 89 289 0.0 0.0 0.00 0.00 0.00
20260905173921 89 292 0.0 0.0 0.00 0.00 0.00
20260905172858 86 295 0.0 0.0 0.00 0.00 0.00
20260905172343 85 292 0.0 0.0 0.00 0.00 0.00
20260905171317 85 155 0.0 0.0 0.00 0.00 0.00
20260905170805 85 315 0.0 0.0 0.00 0.00 0.00
20260905170255 84 315 0.0 0.0 0.00 0.00 0.00
20260905165740 85 162 0.0 0.0 0.00 0.00 0.00
20260905164713 84 162 0.0 0.0 0.00 0.00 0.00
20260905164201 82 151 0.0 0.0 0.00 0.00 0.00
20260905163647 79 356 0.0 0.0 0.00 0.00 0.00
20260905163135 76 113 0.0 0.0 0.00 0.00 0.00
20260905162110 76 165 0.0 0.0 0.00 0.00 0.00
20260905160018 74 140 0.0 0.0 0.00 0.00 0.00
20260905155506 75 212 0.0 0.0 0.00 0.00 0.00